Wind_Speed
10 14 14 14 16 20 25 28 31 31 34 35 33 30 29 27 23 20 15 15 16 17 16 17 19 19 19 16 13 14 13 10 8
7 15 16 13 11 19 24 26 31 35 35 35 33 31 28 26 25 23 21 17 16 18 19 18 14 11 15 18 17 17 14 10 9
7 8 8 7 7 17 23 27 29 32 32 34 33 30 29 26 24 22 24 22 22 21 21 20 19 16 18 20 21 20 15 11 11
10 10 9 9 9 20 25 28 29 30 29 29 29 27 24 26 26 26 25 25 25 25 25 22 23 20 19 23 22 19 16 10 9
6 9 7 10 12 20 23 26 29 30 28 27 26 24 22 22 23 23 26 28 28 26 28 27 12 17 20 19 22 18 15 12 10
8 9 10 10 11 13 10 10 9 9 11 16 19 21 19 17 19 19 19 12 14 21 27 18 9 12 27 28 33 12 13 21 13
13 13 13 14 12 13 19 21 20 17 15 9 8 11 2 1 8 6 6 9 7 9 12 14 16 10 3 9 17 19 17 20 18
16 14 13 12 11 11 16 19 20 23 22 23 23 26 24 23 22 21 19 20 19 16 12 4 9 19 17 20 11 14 20 19 20
14 12 12 11 11 14 15 16 17 21 22 22 24 27 27 24 23 21 20 18 17 17 13 9 5 11 15 18 17 23 20 20 23
13 11 10 10 10 13 16 18 20 21 22 22 26 27 25 24 23 22 20 18 19 20 17 11 8 8 9 11 13 14 14 13 13
13 12 10 9 13 17 20 22 22 21 21 23 25 26 25 26 27 27 25 24 23 22 22 21 17 14 11 9 9 11 11 11 10
13 10 11 15 21 22 20 19 17 20 21 22 23 22 24 26 28 30 31 28 25 22 25 26 28 28 26 23 22 20 16 8 5
14 18 19 20 22 21 20 17 16 19 19 19 19 17 19 22 23 28 28 25 24 21 19 21 24 26 28 26 24 22 20 19 18
20 20 22 24 22 20 18 16 16 17 16 16 14 14 15 16 18 18 20 23 23 23 23 23 23 25 25 24 24 25 22 17 17
18 18 21 23 22 21 17 16 16 14 14 12 12 12 15 16 16 16 14 16 19 21 21 23 21 17 20 21 21 22 22 20 17
17 20 21 21 24 21 16 14 13 14 13 13 13 14 16 15 15 18 17 17 15 14 16 17 18 19 18 17 17 18 18 18 16
15 20 21 24 25 20 17 14 12 13 16 14 13 14 15 13 14 14 14 14 13 13 13 14 14 12 11 11 11 12 11 11 10
20 20 21 25 23 20 17 14 14 14 14 15 13 13 14 12 12 11 11 12 10 11 13 13 14 14 13 13 15 14 14 14 15
23 22 23 25 23 20 16 16 15 13 12 12 13 10 10 11 10 9 10 13 14 14 14 14 14 13 15 15 14 14 15 12 13
26 24 26 26 23 20 16 15 14 13 12 8 12 11 11 12 14 10 9 9 10 14 11 11 10 9 10 11 12 13 14 16 10
Wind_Direction
199 182 188 193 199 188 183 181 185 188 197 204 206 209 214 216 223 230 235 229 224 232 240 252 263 261 243 237 235 237 230 259 263
150 170 190 192 186 182 174 178 186 192 200 205 208 211 218 222 227 231 236 241 246 254 255 249 256 249 236 229 229 221 231 250 249
160 145 173 160 156 163 170 181 188 197 207 211 213 216 221 224 228 236 243 249 252 254 258 267 256 245 227 229 224 220 236 251 240
156 159 163 159 160 168 173 181 190 200 208 212 215 217 223 227 232 236 241 247 253 256 256 252 248 244 237 233 222 226 239 247 254
164 150 154 159 149 158 161 175 189 198 205 211 217 222 226 231 235 240 244 249 255 267 266 262 299 19 343 276 242 229 234 251 253
76 85 76 81 76 74 97 139 162 185 209 226 231 229 234 248 259 269 273 287 287 271 268 263 235 278 305 317 286 239 282 261 254
89 86 89 88 77 69 70 73 86 90 75 68 242 237 94 50 40 52 59 57 36 356 350 272 252 201 127 173 241 253 253 261 259
101 94 87 83 82 77 72 75 75 75 76 75 79 83 81 74 72 70 65 61 58 48 46 8 256 216 246 231 264 268 283 281 267
101 98 96 92 87 86 81 82 81 79 78 81 82 80 80 79 72 61 54 51 56 58 55 38 341 259 265 233 271 291 288 284 275
112 105 98 90 90 86 88 90 90 87 88 85 82 80 80 71 64 60 56 57 57 52 50 43 26 3 329 298 299 296 291 293 290
121 119 113 105 108 102 97 94 91 91 87 85 80 78 72 64 63 66 68 66 63 56 59 56 52 40 21 8 338 315 304 289 290
128 124 119 116 115 111 107 102 101 96 92 86 79 76 74 71 67 63 62 68 69 67 68 65 64 58 54 50 45 41 30 13 31
119 123 126 122 121 119 115 113 107 103 94 86 80 85 86 78 73 70 68 66 69 72 70 72 70 66 64 67 54 53 54 60 73
126 133 132 132 129 127 127 124 118 108 103 96 95 95 96 85 74 74 74 71 66 74 74 69 67 65 59 55 54 52 57 68 81
131 134 137 140 134 135 140 138 130 124 114 114 107 104 100 87 86 84 91 84 77 75 71 69 64 63 62 58 56 54 56 61 66
141 142 145 151 145 143 144 146 141 135 134 133 119 106 117 104 94 87 91 88 90 85 76 70 66 66 65 60 58 60 59 60 62
143 148 150 148 148 147 144 143 140 138 145 145 130 119 119 115 107 101 93 89 88 86 77 71 62 53 47 37 30 30 30 31 30
151 154 157 155 152 150 147 148 145 147 154 160 149 137 136 129 116 105 98 90 84 76 77 75 71 64 60 50 43 37 35 35 38
153 152 151 152 154 152 143 146 148 149 149 163 162 169 174 171 157 131 111 106 101 93 94 91 87 80 67 66 65 58 51 48 50
146 147 152 157 159 156 149 147 142 139 140 140 171 147 132 145 181 175 163 147 130 121 115 104 88 79 75 68 59 50 46 50 60
Height
750 754 756 757 759 764 770 775 779 785 788 792 795 797 798 800 802 804 806 807 808 810 810 811 811 810 812 814 814 815 815 814 814
750 750 751 754 756 761 766 773 776 779 784 789 792 795 797 799 801 803 804 806 806 806 806 805 805 805 806 807 807 808 808 809 811
752 750 752 754 757 760 765 770 774 779 783 785 788 792 795 797 799 801 802 803 802 802 803 803 802 802 801 802 800 802 803 805 805
751 750 751 754 756 759 763 769 774 778 781 784 786 788 791 793 794 795 797 798 800 800 798 795 794 795 797 798 801 802 804 802 804
749 749 752 752 755 759 765 769 773 776 778 781 782 785 788 789 789 791 792 793 793 795 795 796 798 800 804 804 801 801 801 800 797
758 758 760 760 764 767 770 774 777 780 782 783 784 786 789 792 792 794 795 796 795 792 792 785 779 788 787 773 803 795 794 796 790
762 764 766 767 771 775 776 778 780 782 783 783 782 787 790 790 791 792 792 794 792 789 785 780 779 784 786 781 787 793 793 792 788
766 771 772 775 778 780 782 783 785 786 787 787 786 788 792 793 794 793 793 793 792 788 784 780 782 784 785 786 787 788 789 788 787
774 777 778 779 782 785 787 788 789 790 790 790 792 792 795 797 796 795 793 792 792 791 788 785 783 783 783 783 785 785 784 782 783
776 780 782 783 785 787 789 791 792 792 794 794 794 795 798 799 798 797 795 794 793 791 791 790 788 786 785 785 784 782 781 781 780
776 780 784 786 788 789 791 792 793 795 796 796 797 798 799 799 798 798 799 796 795 795 792 791 789 787 785 783 782 780 779 777 776
773 780 784 787 789 791 793 795 797 797 798 799 799 800 801 802 801 800 799 798 799 799 797 796 794 793 790 787 784 782 779 776 774
775 780 785 787 790 793 795 798 799 799 801 801 802 804 804 805 805 804 803 803 801 801 801 800 798 796 794 793 789 786 783 779 777
775 781 786 789 792 794 797 799 801 801 803 804 805 806 806 807 807 807 808 807 806 805 804 802 800 799 798 797 795 792 789 787 785
777 782 787 790 792 795 798 800 801 802 804 806 807 808 808 809 809 809 809 808 810 809 807 805 804 804 802 802 800 798 796 793 791
776 781 786 790 792 795 798 800 801 802 804 806 808 809 810 811 811 811 811 811 811 811 810 809 809 808 807 806 804 802 801 800 798
775 781 786 790 793 796 798 800 802 802 804 806 807 809 811 812 812 813 813 813 814 813 812 811 811 810 809 808 807 806 804 803 801
775 782 787 790 794 796 799 801 803 804 805 806 808 810 811 812 813 814 815 815 815 815 814 814 813 812 811 810 808 807 806 804 802
773 780 786 791 795 798 800 802 803 806 807 808 809 810 811 812 814 815 816 816 817 817 816 815 815 815 815 813 812 811 809 807 806
772 780 786 790 794 798 801 803 804 806 807 808 810 811 811 812 814 815 816 817 818 817 819 818 818 817 817 816 816 814 812 809 807